Phillips, WI

3:52 PM CST on February 06, 2016 (GMT -0600)
Price County

Weather History for KPBH - February, 2014

Change the Weather History Date:

Friday, February 21, 2014

  Actual Average Record
Temperature  
Mean Temperature 18 °F -  
Max Temperature 30 °F 28 °F 48 °F (2007)
Min Temperature 7 °F 10 °F -22 °F (2008)
Degree Days  
Heating Degree Days 46    
Moisture  
Dew Point 11 °F    
Average Humidity 84    
Maximum Humidity 96    
Minimum Humidity 77    
Precipitation  
Precipitation 0.04 in - - ()
Sea Level Pressure  
Sea Level Pressure 29.21 in    
Wind  
Wind Speed 11 mph (WSW)    
Max Wind Speed 21 mph    
Max Gust Speed 30 mph    
Visibility 4 miles    
Events Snow    
Averages and records for this station are not official NWS values.
T = Trace of Precipitation, MM = Missing Value Source: NWS Daily Summary

Daily Weather History Graph

Daily Weather History Graph

Search for Another Location

Airport or City:

Trip Planner

Search our weather history database for the weather conditions in past years. The results will help you decide how hot, cold, wet, or windy it might be!

Date:

Astronomy

Feb. 21, 2014 Rise Set
Actual Time 6:53 AM CST 5:37 PM CST
Civil Twilight 6:23 AM CST 6:07 PM CST
Nautical Twilight 5:49 AM CST 6:41 PM CST
Astronomical Twilight 5:14 AM CST 7:16 PM CST
Moon No Moon Rise 9:57 AM CST (2/21)
Length of Visible Light 11h 43m
Length of Day
10h 43m
Waning Gibbous, 60% of the Moon is Illuminated
Feb 21
Waning Gibbous
Feb 22
Last Quarter
Mar 1
New
Mar 8
First Quarter
Mar 16
Full

Hourly Weather History & Observations

Time (CST) Temp. Windchill Dew Point Humidity Pressure Visibility Wind Dir Wind Speed Gust Speed Precip Events Conditions
12:15 AM 30.6 °F 23.1 °F 29.3 °F 95% 28.92 in 2.5 mi North 8.1 mph - N/A Snow Light Snow
12:35 AM 30.2 °F 24.3 °F 29.3 °F 96% 28.91 in 3.0 mi North 5.8 mph - N/A Snow Light Snow
12:55 AM 30.2 °F 24.3 °F 29.3 °F 96% 28.90 in 5.0 mi North 5.8 mph - N/A Snow Light Snow
1:15 AM 30.2 °F 24.3 °F 29.1 °F 96% 28.90 in 5.0 mi NNW 5.8 mph - N/A Snow Light Snow
1:35 AM 30.0 °F 25.2 °F 28.9 °F 96% 28.90 in 2.5 mi NW 4.6 mph - N/A Snow Light Snow
1:55 AM 29.8 °F 26.3 °F 28.8 °F 96% 28.90 in 3.0 mi West 3.5 mph - 0.01 in Snow Light Snow
2:15 AM 29.8 °F 24.9 °F 28.8 °F 96% 28.91 in 3.0 mi West 4.6 mph - N/A Snow Light Snow
2:40 AM 29.3 °F 22.3 °F 28.4 °F 96% 28.91 in 1.5 mi West 6.9 mph - 0.01 in Snow Light Snow
2:55 AM 29.3 °F 22.3 °F 28.0 °F 95% 28.91 in 1.8 mi West 6.9 mph - 0.02 in Snow Light Snow
3:15 AM 28.8 °F 20.2 °F 27.1 °F 94% 28.91 in 2.5 mi West 9.2 mph - 0.01 in Snow Light Snow
3:35 AM 28.2 °F 19.5 °F 26.2 °F 92% 28.92 in 3.0 mi West 9.2 mph 16.1 mph 0.01 in Snow Light Snow
3:55 AM 27.5 °F 18.0 °F 25.7 °F 93% 28.92 in 2.0 mi West 10.4 mph 21.9 mph 0.01 in Snow Light Snow
4:15 AM 25.2 °F 13.3 °F 22.8 °F 91% 28.94 in 2.5 mi West 13.8 mph 21.9 mph N/A Snow Light Snow
4:35 AM 23.0 °F 13.1 °F 20.3 °F 89% 28.96 in 4.0 mi West 9.2 mph 19.6 mph N/A Snow Light Snow
4:55 AM 21.4 °F 11.9 °F 18.5 °F 89% 28.97 in 3.0 mi West 8.1 mph 17.3 mph N/A Snow Light Snow
5:15 AM 20.1 °F 8.1 °F 16.9 °F 87% 28.99 in 5.0 mi West 11.5 mph 18.4 mph N/A Snow Light Snow
5:35 AM 18.7 °F 5.7 °F 15.1 °F 86% 29.01 in 4.0 mi West 12.7 mph 25.3 mph N/A Snow Light Snow
5:55 AM 18.3 °F 7.3 °F 14.9 °F 86% 29.03 in 7.0 mi WSW 9.2 mph 21.9 mph N/A   Overcast
6:15 AM 16.5 °F 3.0 °F 13.1 °F 86% 29.05 in 5.0 mi WSW 12.7 mph 19.6 mph N/A Snow Light Snow
6:35 AM 15.3 °F 1.4 °F 11.7 °F 86% 29.06 in 4.0 mi West 12.7 mph 19.6 mph N/A Snow Light Snow
6:55 AM 14.2 °F 1.4 °F 10.4 °F 85% 29.08 in 5.0 mi WSW 10.4 mph 19.6 mph N/A Snow Light Snow
7:20 AM 13.1 °F -1.4 °F 9.5 °F 86% 29.09 in 1.5 mi WSW 12.7 mph 16.1 mph N/A Snow Light Snow
7:35 AM 12.2 °F -3.1 °F 8.1 °F 83% 29.11 in 2.0 mi WSW 13.8 mph 21.9 mph N/A Snow Light Snow
7:55 AM 11.7 °F -4.4 °F 7.0 °F 81% 29.12 in 3.0 mi WSW 15.0 mph 25.3 mph N/A Snow Light Snow
8:15 AM 11.1 °F -3.9 °F 6.6 °F 82% 29.13 in 2.0 mi WSW 12.7 mph 21.9 mph N/A Snow Light Snow
8:35 AM 10.8 °F -5.6 °F 6.4 °F 83% 29.13 in 0.8 mi WSW 15.0 mph 20.7 mph N/A Snow Light Snow
8:55 AM 11.1 °F -4.5 °F 7.0 °F 83% 29.14 in 1.0 mi WSW 13.8 mph 19.6 mph N/A Snow Light Snow
9:15 AM 10.9 °F -3.4 °F 6.1 °F 81% 29.14 in 1.5 mi WSW 11.5 mph 24.2 mph N/A Snow Light Snow
9:35 AM 11.3 °F -4.3 °F 6.8 °F 82% 29.15 in 1.0 mi WSW 13.8 mph 26.5 mph N/A Snow Light Snow
9:55 AM 11.7 °F -3.2 °F 6.8 °F 81% 29.16 in 1.5 mi WSW 12.7 mph 25.3 mph N/A Snow Light Snow
10:15 AM 11.3 °F -7.4 °F 6.6 °F 81% 29.16 in 1.2 mi WSW 20.7 mph 25.3 mph N/A Snow Light Snow
10:35 AM 12.2 °F -1.8 °F 6.6 °F 78% 29.17 in 3.0 mi WSW 11.5 mph 25.3 mph N/A Snow Light Snow
10:55 AM 12.6 °F -4.9 °F 7.2 °F 79% 29.18 in 3.0 mi WSW 18.4 mph 25.3 mph N/A Snow Light Snow
11:15 AM 13.5 °F -2.1 °F 7.7 °F 78% 29.19 in 2.5 mi WSW 15.0 mph 25.3 mph N/A Snow Light Snow
11:35 AM 13.8 °F -2.7 °F 7.9 °F 77% 29.20 in 4.0 mi WSW 17.3 mph 28.8 mph N/A Snow Light Snow
12:00 PM 14.0 °F -0.2 °F 7.9 °F 77% 29.20 in 4.0 mi WSW 12.7 mph 27.6 mph N/A Snow Light Snow
12:15 PM 14.4 °F 0.9 °F 9.0 °F 79% 29.21 in 3.0 mi WSW 11.5 mph 24.2 mph N/A Snow Light Snow
12:35 PM 14.5 °F -1.8 °F 9.5 °F 80% 29.21 in 2.5 mi WSW 17.3 mph 21.9 mph N/A Snow Light Snow
12:55 PM 13.8 °F -2.2 °F 8.6 °F 80% 29.22 in 1.8 mi SW 16.1 mph 23.0 mph N/A Snow Light Snow
1:15 PM 13.6 °F -3.0 °F 8.4 °F 80% 29.23 in 2.5 mi WSW 17.3 mph 23.0 mph N/A Snow Light Snow
1:35 PM 13.8 °F -2.7 °F 8.4 °F 79% 29.24 in 2.5 mi WSW 17.3 mph 23.0 mph N/A Snow Light Snow
1:55 PM 13.1 °F -3.1 °F 7.9 °F 80% 29.26 in 2.0 mi SW 16.1 mph 25.3 mph N/A Snow Light Snow
2:15 PM 12.7 °F -3.6 °F 6.8 °F 77% 29.27 in 3.0 mi WSW 16.1 mph 24.2 mph N/A   Haze
2:35 PM 12.4 °F -3.5 °F 6.4 °F 77% 29.28 in 4.0 mi SW 15.0 mph 25.3 mph N/A Snow Light Snow
2:55 PM 12.2 °F -3.7 °F 6.3 °F 77% 29.29 in 2.0 mi WSW 15.0 mph 28.8 mph N/A Snow Light Snow
3:15 PM 12.0 °F -4.5 °F 6.8 °F 80% 29.31 in 1.2 mi WSW 16.1 mph 29.9 mph N/A Snow Light Snow
3:35 PM 12.0 °F -2.7 °F 6.8 °F 80% 29.31 in 1.5 mi SW 12.7 mph 19.6 mph N/A Snow Light Snow
3:55 PM 11.3 °F -6.0 °F 6.3 °F 80% 29.33 in 1.8 mi WSW 17.3 mph 26.5 mph N/A Snow Light Snow
4:15 PM 11.1 °F -7.2 °F 5.9 °F 80% 29.35 in 2.5 mi WSW 19.6 mph 27.6 mph N/A Snow Light Snow
4:35 PM 10.8 °F -6.2 °F 5.9 °F 81% 29.36 in 2.5 mi WSW 16.1 mph 25.3 mph N/A Snow Light Snow
4:55 PM 10.4 °F -4.8 °F 5.9 °F 82% 29.37 in 2.0 mi WSW 12.7 mph 25.3 mph N/A Snow Light Snow
5:15 PM 10.4 °F -6.6 °F 5.9 °F 82% 29.38 in 2.0 mi WSW 16.1 mph 21.9 mph N/A Snow Light Snow
5:35 PM 10.4 °F -4.8 °F 5.9 °F 82% 29.39 in 4.0 mi WSW 12.7 mph 23.0 mph N/A Snow Light Snow
5:55 PM 10.4 °F -3.3 °F 5.9 °F 82% 29.40 in 5.0 mi WSW 10.4 mph 23.0 mph N/A Snow Light Snow
6:15 PM 10.4 °F -5.4 °F 5.9 °F 82% 29.42 in 7.0 mi WSW 13.8 mph 24.2 mph N/A Snow Light Snow
6:35 PM 10.4 °F -7.2 °F 5.9 °F 82% 29.43 in 7.0 mi WSW 17.3 mph 24.2 mph N/A Snow Light Snow
6:55 PM 10.4 °F -7.2 °F 5.7 °F 81% 29.43 in 7.0 mi WSW 17.3 mph 23.0 mph N/A Snow Light Snow
7:15 PM 10.4 °F -5.4 °F 5.9 °F 82% 29.44 in 4.0 mi WSW 13.8 mph 24.2 mph N/A Snow Light Snow
7:35 PM 10.0 °F -5.9 °F 5.9 °F 83% 29.44 in 3.0 mi WSW 13.8 mph 23.0 mph N/A Snow Light Snow
7:55 PM 9.5 °F -5.9 °F 5.0 °F 82% 29.45 in 4.0 mi WSW 12.7 mph 23.0 mph N/A Snow Light Snow
8:15 PM 9.3 °F -7.4 °F 4.6 °F 81% 29.47 in 4.0 mi WSW 15.0 mph 23.0 mph N/A   Haze
8:35 PM 8.6 °F -8.9 °F 4.1 °F 82% 29.47 in 5.0 mi WSW 16.1 mph 23.0 mph N/A   Haze
8:55 PM 8.6 °F -8.3 °F 4.1 °F 82% 29.49 in 4.0 mi WSW 15.0 mph 21.9 mph N/A   Overcast
9:15 PM 8.6 °F -6.3 °F 3.7 °F 81% 29.49 in 5.0 mi WSW 11.5 mph 18.4 mph N/A   Overcast
9:35 PM 8.4 °F -7.9 °F 3.9 °F 82% 29.50 in 4.0 mi WSW 13.8 mph 20.7 mph N/A Snow Light Snow
9:55 PM 8.4 °F -6.5 °F 3.9 °F 82% 29.51 in 4.0 mi WSW 11.5 mph 18.4 mph N/A Snow Light Snow
10:15 PM 8.2 °F -6.8 °F 3.7 °F 82% 29.51 in 5.0 mi WSW 11.5 mph 18.4 mph N/A Snow Light Snow
10:35 PM 8.2 °F -5.1 °F 3.6 °F 81% 29.52 in 5.0 mi WSW 9.2 mph 17.3 mph N/A Snow Light Snow
10:55 PM 8.2 °F -5.1 °F 3.4 °F 81% 29.52 in 7.0 mi WSW 9.2 mph 18.4 mph N/A   Overcast
11:15 PM 8.1 °F -7.7 °F 3.0 °F 80% 29.53 in 10.0 mi WSW 12.7 mph 19.6 mph N/A   Overcast
11:35 PM 7.7 °F -7.4 °F 2.8 °F 81% 29.53 in 7.0 mi WSW 11.5 mph 21.9 mph N/A   Overcast
11:55 PM 7.3 °F -8.6 °F 2.3 °F 80% 29.53 in 7.0 mi WSW 12.7 mph 18.4 mph N/A   Overcast